Weather in Aleksino

Russia / Moscow Oblast     55°23′47″N   36°18′02″E
temp.,
°C
wind,
m/s
gust,
m/s
humid.,
%
clouds,
%
prec.,
mm/h
press.,
hPa
HPBL,
m
20 june, sun
sun2000:00+16ssw22861 0.0 102419
03:00+15ssw229412 0.0 102419
06:00+17ssw13880 0.0 102391
09:00+23ssw23660 0.0 1023593
12:00+27s23490 0.0 10221400
15:00+28s33410 0.0 10211751
18:00+27s23530 0.0 1021780
21:00+20s368299 0.0 1021100
21 june, mon
mon2100:00+17s2590100 0.0 102184
03:00+16s1294100 0.0 102213
06:00+18sse128788 0.0 102285
09:00+23sse2365100 0.0 1022502
12:00+27sse23469 0.0 10211249
15:00+29sse333966 0.0 10201652
18:00+27sse355497 0.0 1020631
21:00+21sse24848 0.0 102067
22 june, tue
tue2200:00+18sse239514 0.0 102146
03:00+18se239713 0.0 102149
06:00+19se259210 0.0 1021137
09:00+26sse35648 0.0 1021598
12:00+29s354510 0.0 10211401
15:00+31s45375 0.0 10201737
18:00+29s35495 0.0 1020669
21:00+22s36825 0.0 1020111
23 june, wed
wed2300:00+20s24945 0.0 102173
03:00+19s22961 0.0 102235
06:00+20s24890 0.0 1021107
09:00+27sse23615 0.0 1021491
12:00+30s23446 0.0 10211466
15:00+32s333675 0.0 10201962
18:00+30ssw23485 0.0 1020413
21:00+23s34740 0.0 102063
24 june, thu
thu2400:00+20ssw22840 0.0 102127
03:00+19ssw12884 0.0 102111
06:00+21ssw12820 0.0 102168
09:00+27s12585 0.0 1021457
12:00+31s21395 0.0 10201268
15:00+33ssw12335 0.0 10201854
18:00+31sse23460 0.0 1019469
21:00+24s22711 0.1 101936